This is the latest recevied weather packets stored in our database for station/object KC1HBM. If no packets are shown the sender has not sent any weather packets the latest 10 day(s).
| Time | Temp. | Humidity | Pressure | Rain* | Wind** | Luminosity | Snow |
|---|---|---|---|---|---|---|---|
| 1777743165 | 10.56° C | 86% | 1009.4 hPa | 0 mm | - | 229 W/m² | - |
| 1777742863 | 10.56° C | 87% | 1009.6 hPa | 0 mm | - | 390 W/m² | - |
| 1777742559 | 10.56° C | 88% | 1009.4 hPa | 0 mm | - | 225 W/m² | - |
| 1777742255 | 10.56° C | 90% | 1009.6 hPa | 0 mm | - | 184 W/m² | - |
| 1777741952 | 10° C | 91% | 1009.4 hPa | 0 mm | - | 173 W/m² | - |
| 1777741649 | 10° C | 92% | 1009.3 hPa | 0 mm | - | 190 W/m² | - |
| 1777741346 | 9.44° C | 92% | 1009.4 hPa | 0 mm | - | 103 W/m² | - |
| 1777741042 | 10° C | 92% | 1009.6 hPa | 0 mm | - | 82 W/m² | - |
| 1777740739 | 10° C | 92% | 1009.6 hPa | 0 mm | - | 108 W/m² | - |
| 1777740435 | 9.44° C | 93% | 1009.7 hPa | 0 mm | - | 101 W/m² | - |
| 1777740133 | 9.44° C | 92% | 1009.5 hPa | 0 mm | - | 65 W/m² | - |
| 1777739828 | 10° C | 92% | 1009.4 hPa | 0 mm | - | 51 W/m² | - |
| 1777739525 | 9.44° C | 93% | 1009.6 hPa | 0 mm | - | 85 W/m² | - |
| 1777739222 | 9.44° C | 93% | 1009.5 hPa | 0 mm | - | 98 W/m² | - |
| 1777738919 | 9.44° C | 94% | 1010 hPa | 0 mm | - | 81 W/m² | - |
| 1777738616 | 9.44° C | 94% | 1009.7 hPa | 0 mm | - | 72 W/m² | - |
| 1777738313 | 9.44° C | 94% | 1009.7 hPa | 0 mm | - | 79 W/m² | - |
| 1777738011 | 9.44° C | 96% | 1009.8 hPa | 0 mm | - | 104 W/m² | - |
| 1777737710 | 8.89° C | 96% | 1009.6 hPa | 0 mm | - | 77 W/m² | - |
| 1777737407 | 8.89° C | 96% | 1009.8 hPa | 0 mm | - | 38 W/m² | - |
| 1777737104 | 8.89° C | 96% | 1009.9 hPa | 0 mm | - | 82 W/m² | - |
| 1777736800 | 8.89° C | 96% | 1009.8 hPa | 0 mm | - | 100 W/m² | - |
| 1777736172 | 8.89° C | 97% | 1009.7 hPa | 0 mm | - | 92 W/m² | - |
| 1777735869 | 8.89° C | 96% | 1009.8 hPa | 0 mm | - | 95 W/m² | - |
| 1777735566 | 8.89° C | 97% | 1009.9 hPa | 0 mm | - | 81 W/m² | - |
* Rain latest hour (hover to see other rain measurements)
** Current wind speed in m/s (hover to see current wind gust speed)